A/2019 O3

Japanese version
Home page
Updated on December 24, 2019

---------------------------------------------------------------------

* Profile

Discovery Date July 26, 2019
Magnitude 19.30 mag
Discoverer Q.-Z. Ye (Palomar Mountain--ZTF)

* Pictures

* Orbital Elements

Epoch 2021 Mar. 7.0 TT = JDT 2459280.5
T 2021 Mar. 8.23872 TT                                  Williams
q   8.8184338            (2000.0)            P               Q
z  -0.0002689      Peri.   60.06709     +0.25479320     -0.43685907
 +/-0.0000093      Node   300.37947     -0.73835223     +0.48820095
e   1.0023716      Incl.   89.81271     +0.62443287     +0.75552233
H   10.0
From 80 observations 2019 May 14-Dec. 1, mean residual 0".4.

* Magnitudes Graph

        H = 10.0  G = 0.15

---------------------------------------------------------------------

The orbital elements are published on M.P.E.C. 2019-X94.
The magnitudes graphs are made with Comet for Windows.

---------------------------------------------------------------------

Copyright(C) Seiichi Yoshida (comet@aerith.net). All rights reserved.